Theta_e
317 314 314 318 317 315 320 320 318 321 336 340 339 342 343 342 345 342 340 341 340 340 337 334 333 333 335 337 338 337 336 334 334 334 334 334 334 334 335 336 336 338 340 340 339 336 337 333 332
317 314 317 310 315 317 316 318 327 328 337 340 341 342 342 343 339 343 342 341 340 340 337 334 333 334 334 334 335 334 334 334 334 335 335 337 336 336 337 335 334 334 333 332 332 331 331 332 332
317 316 311 312 311 315 316 318 320 319 341 340 342 340 342 341 341 340 341 341 341 342 339 336 334 334 335 334 334 334 336 335 337 337 338 338 338 336 334 334 335 333 332 332 331 330 330 330 331
317 311 307 311 314 313 317 317 316 316 334 338 340 343 338 337 339 341 341 342 342 340 339 339 338 338 337 335 335 336 338 338 339 338 338 338 335 334 334 335 333 332 329 325 321 320 320 320 320
315 308 311 310 312 312 312 313 314 315 334 340 339 342 341 337 338 340 340 340 340 340 339 339 338 337 337 339 339 339 339 339 338 337 335 334 334 335 335 333 330 324 317 311 308 307 307 308 308
314 308 313 314 313 314 314 314 318 336 340 342 341 340 341 337 339 338 339 339 338 337 337 337 335 336 336 336 336 336 336 336 335 334 333 333 333 332 331 325 314 307 306 306 306 308 309 310 311
316 315 317 315 317 316 316 316 334 339 342 343 338 341 340 339 337 337 338 336 336 336 335 335 334 334 335 335 335 335 335 334 333 332 332 332 328 322 312 307 306 306 306 307 309 310 311 310 311
312 313 317 315 316 315 315 315 332 337 341 336 335 341 340 338 335 336 336 335 334 333 333 332 332 334 333 333 335 334 334 333 332 331 327 316 309 307 305 306 307 308 308 309 309 310 311 310 310
310 313 314 316 315 316 315 317 316 329 335 336 332 335 334 336 334 332 332 331 332 331 331 330 330 331 331 330 330 330 330 329 327 318 314 310 309 308 308 309 309 309 309 309 309 308 308 308 308
313 312 315 314 314 317 316 316 316 321 337 338 333 332 335 334 333 332 330 329 328 328 329 330 330 330 329 329 328 327 327 323 317 316 314 312 311 310 310 309 309 309 309 309 308 308 307 307 307
314 315 316 316 315 315 314 316 316 317 322 331 336 331 332 332 333 332 332 330 329 328 328 328 328 325 324 327 328 322 315 314 315 315 313 311 311 311 310 309 309 308 308 308 307 307 307 307 307
318 315 315 317 317 316 316 315 316 315 317 324 332 329 330 330 332 333 332 330 329 327 327 325 322 318 314 314 314 314 314 314 314 314 312 312 311 310 309 308 308 307 307 306 306 307 306 307 307
317 317 317 316 315 314 314 314 315 315 321 330 329 328 329 330 330 331 331 331 329 327 325 325 322 310 311 313 315 315 314 313 313 313 312 311 310 309 309 308 307 306 306 305 305 306 306 307 307
317 318 318 317 318 316 317 316 315 317 332 331 329 327 327 327 327 328 330 330 329 328 326 326 322 312 315 315 315 313 313 312 312 312 311 310 310 308 307 306 306 305 305 305 305 306 305 305 305
319 319 318 319 319 318 315 317 315 317 333 332 330 328 326 325 325 325 328 328 328 328 329 327 323 315 316 315 314 313 311 310 310 310 310 309 308 307 307 306 305 304 304 305 305 305 305 304 304
320 319 320 319 317 317 316 318 316 323 334 333 331 329 328 325 325 325 326 326 327 327 328 327 324 321 317 315 315 312 311 310 308 308 308 307 307 306 306 305 304 304 303 304 304 304 304 303 302
318 320 321 320 316 316 317 316 315 311 325 329 331 330 330 327 325 325 325 325 325 325 325 324 320 317 316 315 313 311 310 308 306 305 306 305 305 305 304 304 303 303 302 302 303 303 303 301 302
321 321 320 318 316 314 315 315 311 311 311 311 326 327 328 328 327 326 326 324 322 322 321 319 314 314 313 311 310 309 308 307 305 303 304 304 304 303 303 303 302 302 300 300 302 302 301 300 302
320 321 320 315 313 314 314 313 310 309 309 308 307 308 316 323 326 326 325 324 321 320 318 315 313 312 311 310 308 306 305 305 304 303 302 303 303 302 302 302 301 300 298 299 301 300 299 299 304
321 322 320 314 314 311 311 309 308 309 309 309 308 307 306 308 319 321 322 321 319 318 316 314 313 312 311 310 308 306 305 304 304 302 301 302 302 301 301 301 300 299 297 297 300 300 298 297 301
321 318 316 315 312 309 309 313 310 309 308 307 306 306 305 308 318 318 318 319 318 316 315 313 312 310 309 308 308 305 304 302 300 300 300 300 301 301 300 300 299 298 296 296 298 299 298 297 297
321 316 315 312 310 310 309 313 310 309 308 307 308 308 311 312 316 317 317 317 316 315 313 312 312 310 308 308 306 304 302 300 300 300 299 299 299 300 299 298 298 297 296 295 296 297 298 297 296
314 313 311 311 310 308 310 309 309 308 308 308 310 315 316 315 315 316 315 314 314 313 312 312 311 309 308 307 307 305 304 302 301 299 298 298 298 298 298 297 296 295 295 295 295 295 295 296 296
313 311 310 308 308 311 309 309 308 308 313 314 313 314 314 311 311 311 312 312 312 313 313 311 310 309 310 308 307 306 304 302 300 298 297 297 297 297 296 296 295 294 293 294 294 294 293 292 293
310 309 311 311 312 312 310 309 309 314 315 314 314 316 312 311 311 310 311 311 312 313 312 310 311 311 309 308 306 305 305 303 302 299 297 297 296 296 295 295 294 294 293 292 292 292 291 289 291
311 309 312 314 314 313 310 311 309 314 312 314 313 314 312 312 312 311 311 312 313 313 314 315 311 310 309 308 308 307 306 304 302 300 299 296 296 296 295 293 293 293 292 291 291 291 290 288 289
310 310 310 311 311 311 309 309 314 313 311 313 314 313 312 312 312 311 313 313 313 313 313 313 311 310 310 310 309 307 305 304 302 300 299 297 296 295 294 292 292 292 291 290 290 290 290 289 289
309 308 309 310 314 314 311 310 309 315 312 312 314 314 314 312 313 312 311 312 313 313 314 313 313 312 310 308 307 306 305 304 304 301 299 297 296 295 293 291 291 290 290 290 289 289 289 289 289
307 308 308 309 309 313 312 312 313 316 312 310 311 313 312 312 312 312 311 311 311 311 310 310 310 310 309 308 307 306 304 303 302 301 299 297 296 295 293 291 291 290 290 290 289 289 289 289 289
306 308 308 309 309 311 314 312 310 311 311 310 310 309 309 309 310 311 310 309 309 309 308 308 309 309 309 307 307 306 305 303 301 301 299 297 296 295 293 290 290 290 290 289 289 289 288 289 288
Wind_Speed
10 6 2 3 4 5 4 6 4 7 4 5 2 5 7 4 4 3 4 13 19 26 22 21 20 20 20 21 21 21 21 20 18 17 16 14 13 12 11 10 9 9 10 9 8 6 6 5 6
7 2 3 3 4 3 5 4 4 3 2 3 6 2 6 2 1 5 6 16 23 23 22 22 21 20 19 20 20 20 19 18 17 16 14 13 12 12 10 8 5 4 4 4 4 4 4 4 6
1 3 3 4 4 4 4 5 9 4 8 3 4 6 2 4 6 3 14 22 24 23 22 21 21 21 20 19 19 19 18 17 16 14 15 13 12 10 7 6 2 3 4 4 4 4 5 5 5
4 5 4 4 4 7 8 13 16 6 2 5 5 5 2 8 8 9 22 23 23 23 22 19 19 18 18 18 17 17 17 17 18 16 14 11 9 7 6 3 2 2 3 3 3 3 4 5 5
4 3 3 2 5 6 7 12 13 6 3 4 2 2 3 5 12 23 24 25 26 24 22 21 19 17 16 17 16 16 18 17 17 13 8 8 6 5 3 3 2 2 2 3 4 4 6 7 7
3 3 3 2 5 7 8 6 4 2 4 6 6 4 2 14 16 22 25 25 25 26 23 22 18 17 17 17 17 16 15 13 11 10 8 7 5 5 5 3 3 4 5 7 8 9 10 9 9
6 4 4 4 4 7 6 7 2 4 5 3 8 5 5 9 18 23 24 23 23 22 21 19 19 18 17 17 17 16 15 13 12 10 9 8 7 6 5 7 8 9 9 9 10 10 10 10 10
5 4 0 3 2 7 6 8 2 4 3 5 3 5 6 15 26 26 23 23 22 22 20 18 17 18 17 18 16 15 14 13 12 11 10 10 10 10 10 11 12 11 10 10 10 10 11 10 8
4 4 1 5 4 6 7 4 5 3 6 3 4 1 1 34 29 25 24 23 22 20 19 19 17 16 18 16 15 15 15 14 14 14 14 12 12 13 13 12 11 10 8 9 8 9 9 9 9
4 4 7 5 4 5 6 3 3 2 2 1 3 7 22 29 27 22 20 18 22 23 21 22 19 17 18 19 18 17 17 17 16 14 12 12 12 12 11 10 10 9 9 9 8 9 10 11 10
0 4 3 4 5 2 4 4 2 2 3 7 8 13 16 21 21 20 19 22 25 26 25 24 23 19 18 19 20 19 19 18 16 14 11 10 10 10 9 9 8 7 8 7 7 8 10 12 12
5 6 3 5 4 5 6 7 5 5 8 3 9 17 19 20 21 24 22 22 22 25 24 23 18 19 18 20 21 19 17 15 15 15 14 12 13 12 11 9 7 6 6 6 7 8 9 10 12
4 4 8 7 10 7 5 9 6 7 5 8 15 16 17 17 20 23 24 22 27 27 25 23 20 22 20 22 20 18 15 13 12 13 13 13 13 11 10 9 7 5 5 6 7 8 10 12 11
4 7 12 8 12 6 6 8 6 4 6 8 13 17 17 18 17 19 25 25 25 24 27 26 23 24 21 23 21 19 17 14 13 14 13 11 10 10 9 8 7 7 7 7 7 8 9 11 10
5 7 9 7 5 5 5 8 7 5 8 10 11 11 13 15 19 25 26 26 34 35 35 32 29 28 26 26 24 21 16 13 13 12 11 10 10 10 8 5 5 5 6 6 6 7 8 8 10
5 3 5 5 5 4 2 8 8 4 6 9 10 9 12 15 20 22 22 26 32 35 38 35 34 32 31 30 27 24 19 14 12 12 10 9 10 9 8 7 6 4 3 5 6 7 8 8 10
4 3 2 9 1 2 1 7 4 3 7 9 9 11 12 12 12 23 28 33 36 36 35 38 34 33 33 32 30 25 21 16 13 13 13 12 11 9 8 9 9 6 3 5 6 8 8 9 13
3 4 4 6 6 7 5 5 9 5 5 7 9 10 9 9 15 21 28 30 32 33 34 39 37 37 36 34 30 25 22 18 15 14 13 13 12 10 9 9 7 4 5 8 9 9 10 11 16
6 4 7 6 7 3 6 5 11 11 6 10 9 9 11 15 13 25 31 33 32 34 35 40 41 40 39 37 34 28 25 21 17 14 13 13 13 11 11 10 7 6 6 8 11 12 11 16 26
9 9 12 7 5 4 7 9 12 9 8 8 8 11 10 6 9 14 29 35 38 40 37 40 42 43 40 39 33 29 28 20 18 16 14 13 13 11 9 8 8 6 6 8 11 11 10 11 15
6 7 5 7 3 5 6 10 4 7 7 6 8 10 10 8 10 13 18 33 34 34 35 37 39 40 36 35 30 27 23 21 17 16 15 15 13 12 10 9 8 7 6 7 8 10 9 9 8
4 5 6 5 2 4 3 14 6 7 13 8 10 9 10 10 10 14 17 23 26 27 29 33 36 34 31 30 30 31 22 20 20 21 18 16 14 13 12 10 7 6 6 6 6 7 7 10 12
7 3 5 2 3 3 2 4 1 3 7 8 10 8 10 14 6 6 8 12 15 20 25 30 28 26 31 30 31 32 25 21 21 19 19 17 15 12 12 11 9 8 7 6 6 6 6 8 10
5 3 2 3 2 7 7 9 4 1 4 6 7 7 8 10 11 11 17 20 18 21 24 25 26 27 28 32 30 30 27 22 24 23 20 18 15 13 12 11 9 9 7 7 7 7 5 5 6
3 4 3 4 1 7 2 2 8 1 4 4 6 6 7 8 10 9 9 11 16 18 13 14 18 24 31 29 31 28 26 25 25 26 23 21 18 16 14 12 12 10 9 9 9 9 8 8 10
3 6 5 6 3 4 3 5 4 4 3 4 5 5 6 6 7 8 8 11 15 19 20 22 30 32 31 28 26 29 30 28 27 26 24 23 20 19 16 13 12 12 11 10 11 11 11 11 13
2 2 2 2 1 3 3 4 3 3 5 7 6 6 6 6 4 6 8 12 13 18 27 37 28 24 25 30 27 29 33 30 29 25 23 21 19 18 17 15 15 13 13 12 13 13 14 13 14
3 2 3 2 3 6 4 5 4 2 2 4 4 3 6 5 9 10 11 21 30 33 36 32 33 34 32 29 30 33 33 32 27 28 26 23 20 19 17 15 15 16 15 14 14 14 14 13 13
3 1 0 2 4 5 11 8 3 2 5 4 1 5 8 6 6 11 11 17 22 28 28 34 30 31 35 39 35 31 33 32 27 27 25 25 22 19 17 17 19 18 16 15 15 15 15 14 14
6 6 6 4 9 3 2 7 4 4 1 4 6 8 3 10 13 7 10 18 21 26 28 31 33 33 37 39 35 40 37 31 29 28 28 28 26 23 19 21 21 20 19 17 17 16 15 14 15
Wind_Direction
311 309 192 77 52 60 269 266 273 286 285 337 344 86 135 82 154 207 125 167 156 155 160 160 157 152 150 145 143 140 138 136 133 131 128 126 123 119 116 112 110 98 87 79 80 83 65 53 54
314 145 90 85 92 59 270 246 232 270 341 111 55 71 35 58 12 113 102 162 158 156 160 160 158 155 152 148 147 143 142 140 136 135 130 123 126 118 114 112 109 98 90 69 64 58 55 52 44
321 165 92 94 98 174 248 251 275 284 149 227 93 26 56 117 120 117 140 152 153 154 160 161 159 159 156 155 153 149 146 142 137 133 123 125 123 123 118 109 90 92 85 76 63 58 59 60 54
169 22 35 88 240 244 225 264 269 308 199 118 121 70 75 279 138 143 152 148 151 154 157 158 159 160 158 158 159 154 149 139 131 135 132 128 130 130 126 123 120 78 79 81 67 56 62 66 61
48 54 62 48 255 257 251 260 269 261 184 110 108 137 68 23 135 152 158 158 154 153 154 152 149 148 157 147 149 152 149 148 140 139 142 143 149 154 139 140 121 88 67 73 78 76 74 79 72
43 100 53 232 260 278 276 255 256 104 102 144 99 97 112 149 144 155 163 162 160 158 157 159 172 175 169 164 165 163 160 158 152 160 173 170 164 154 141 131 109 98 97 91 89 86 88 83 70
133 105 223 216 266 304 265 340 26 133 120 80 121 114 144 161 161 166 165 166 163 162 163 167 182 182 182 181 179 178 177 178 179 181 176 166 146 145 137 125 110 102 98 94 85 83 87 81 71
111 97 51 285 224 272 275 344 7 36 56 107 149 180 188 172 168 165 164 164 165 168 170 188 190 191 191 187 183 186 190 189 188 179 166 151 141 131 128 124 118 110 104 95 91 88 84 81 70
126 74 223 248 196 252 303 350 332 62 96 49 8 229 227 151 161 158 159 162 170 173 176 193 195 191 187 183 184 184 183 182 171 156 147 143 131 128 125 125 125 118 114 110 95 91 92 86 78
113 141 225 222 211 282 300 287 291 94 137 204 35 43 133 150 160 164 167 168 175 180 180 186 195 192 187 187 186 186 181 170 163 161 158 152 142 137 137 133 126 122 123 121 103 99 98 94 88
214 197 211 285 243 29 268 285 230 189 227 211 194 167 160 165 172 173 177 179 181 189 185 187 189 193 189 189 184 181 169 167 166 166 166 160 157 155 151 141 142 131 131 126 118 108 107 102 93
331 245 240 299 330 336 294 305 282 196 235 288 176 162 166 178 186 187 183 182 179 192 190 189 189 187 184 180 171 168 168 167 170 168 169 164 161 152 148 147 144 142 131 123 119 114 106 110 101
208 324 312 259 261 236 245 243 245 262 262 103 136 159 179 184 190 192 188 184 188 191 193 188 185 180 178 174 169 168 167 163 167 166 166 168 169 166 163 164 158 151 133 124 117 113 103 111 109
305 295 292 292 295 235 209 266 167 254 134 132 161 181 188 195 192 185 194 187 180 184 193 191 189 184 180 178 175 170 169 171 169 164 171 174 177 174 170 162 154 149 143 127 120 113 109 104 99
273 307 327 331 308 307 179 298 229 207 163 168 200 201 200 197 193 203 192 187 185 189 195 194 191 189 184 183 177 172 170 168 172 170 171 175 171 165 162 156 153 145 133 128 131 125 121 115 98
336 18 338 304 343 303 123 279 347 96 141 219 213 209 210 212 208 203 192 196 197 194 194 191 194 196 194 187 180 174 171 170 171 172 176 175 166 167 166 163 161 134 135 151 159 142 129 112 113
356 257 271 318 172 357 106 287 258 20 184 247 241 237 222 215 213 204 197 198 197 196 189 190 192 190 187 181 175 172 170 168 165 167 174 167 167 169 180 172 162 159 161 162 145 130 128 109 112
240 276 294 255 284 8 317 264 301 291 321 264 227 228 230 224 220 198 205 200 195 191 185 182 179 176 172 170 170 166 163 161 162 164 168 166 169 167 175 169 161 160 173 154 148 133 122 113 119
261 263 261 261 267 297 260 268 285 294 298 276 249 244 236 230 221 192 196 193 189 185 178 178 174 173 172 171 166 163 158 157 156 159 163 168 169 165 169 172 161 160 170 159 154 137 116 118 124
244 255 270 270 254 203 253 250 248 257 252 249 280 297 258 226 186 185 184 184 185 181 176 174 176 176 176 175 175 170 163 163 163 161 158 166 166 166 171 178 169 164 163 159 171 161 133 113 151
242 222 233 238 308 300 312 280 222 263 266 282 268 261 282 242 201 194 187 187 182 179 175 171 173 173 175 178 176 167 159 154 149 155 159 164 173 175 180 177 178 173 171 170 172 178 184 151 135
256 222 234 252 322 277 33 293 194 259 283 312 329 337 322 302 229 198 191 185 179 174 166 166 171 174 180 181 173 168 163 160 172 171 167 167 175 176 178 179 182 186 175 167 166 174 192 181 160
241 255 260 279 274 18 293 286 50 305 309 318 310 340 337 333 246 149 130 127 148 149 149 160 168 172 182 186 184 178 184 182 172 172 165 167 169 176 175 181 179 176 171 162 156 166 184 194 190
246 226 22 62 119 270 220 198 296 312 268 288 319 347 15 38 55 70 89 104 110 134 150 162 170 180 190 190 190 189 188 178 172 171 171 169 170 170 174 173 172 166 159 158 159 158 152 155 185
132 98 301 304 217 238 173 183 246 347 5 323 313 15 33 53 69 75 93 111 124 134 146 156 178 189 204 194 191 192 199 191 189 185 177 174 172 174 180 179 176 170 162 156 153 150 132 128 131
247 170 181 251 225 250 321 260 265 90 336 331 42 63 65 80 101 99 104 123 133 146 164 196 203 201 198 199 199 204 208 201 200 199 186 190 185 183 181 178 176 170 163 157 157 147 137 128 124
322 236 187 270 262 312 211 290 345 65 10 25 45 64 101 113 91 131 145 154 169 182 190 204 201 208 201 208 207 206 205 204 204 202 199 196 189 184 182 176 175 174 165 160 159 150 145 135 127
175 222 344 0 269 245 266 266 225 268 18 354 35 70 105 146 160 166 182 187 189 194 202 209 208 203 204 212 206 206 207 208 205 200 196 198 186 189 179 176 181 176 171 164 161 154 152 154 144
339 158 318 229 191 241 270 268 182 180 223 215 206 321 331 279 201 205 208 206 192 201 207 209 206 202 205 201 205 213 209 204 199 197 200 200 191 189 184 190 185 180 174 174 170 165 158 156 151
203 213 186 204 264 238 168 261 314 250 278 256 247 236 224 273 290 265 207 200 203 208 209 207 206 206 209 208 205 201 202 198 197 200 203 201 196 190 190 193 190 180 179 182 179 171 169 172 161